Change the Weather History Date:

Monday, December 9, 2013

  Actual Average Record
Temperature  
Mean Temperature 70 °F -  
Max Temperature 81 °F 66 °F 84 °F (1978)
Min Temperature 60 °F 50 °F 30 °F (1984)
Cooling Degree Days 6    
Growing Degree Days 20 (Base 50)    
Moisture  
Dew Point 65 °F    
Average Humidity 94    
Maximum Humidity 100    
Minimum Humidity 60    
Precipitation  
Precipitation 0.00 in - - ()
Sea Level Pressure  
Sea Level Pressure 30.18 in    
Wind  
Wind Speed 2 mph (SSW)    
Max Wind Speed 14 mph    
Max Gust Speed -    
Visibility 3 miles    
Events Fog    
Averages and records for this station are not official NWS values.
T = Trace of Precipitation, MM = Missing Value Source: NWS Daily Summary

Daily Weather History Graph

Daily Weather History Graph

Search for Another Location

Airport or City:

Trip Planner

Search our weather history database for the weather conditions in past years. The results will help you decide how hot, cold, wet, or windy it might be!

Date:

Astronomy

Dec. 09, 2013 Rise Set
Actual Time 7:09 AM EST 5:25 PM EST
Civil Twilight 6:43 AM EST 5:52 PM EST
Nautical Twilight 6:13 AM EST 6:21 PM EST
Astronomical Twilight 5:44 AM EST 6:51 PM EST
Moon 12:27 PM EST (12/9) No Moon Set
Length of Visible Light 11h 08m
Length of Day
10h 16m
Waxing Crescent, 51% of the Moon is Illuminated
Dec 9
Waxing Crescent
Dec 17
Full
Dec 25
Last Quarter
Jan 1
New
Jan 7
First Quarter

Hourly Weather History & Observations

Time (EST) Temp. Heat Index Dew Point Humidity Pressure Visibility Wind Dir Wind Speed Gust Speed Precip Events Conditions
12:12 AM 64.4 °F - 64.4 °F 100% 30.20 in 0.5 mi NNW 3.5 mph - N/A Fog Fog
12:36 AM 64.4 °F - 64.4 °F 100% 30.19 in 0.2 mi Calm Calm - N/A Fog Fog
12:42 AM 64.4 °F - 64.4 °F 100% 30.19 in 0.5 mi Calm Calm - N/A Fog Fog
12:52 AM 64.4 °F - 64.4 °F 100% 30.19 in 0.2 mi Calm Calm - N/A Fog Fog
12:58 AM 64.9 °F - 64.0 °F 97% 30.19 in 0.2 mi Calm Calm - N/A Fog Fog
1:10 AM 64.4 °F - 64.4 °F 100% 30.19 in 0.5 mi Calm Calm - N/A Fog Fog
1:23 AM 64.4 °F - 64.4 °F 100% 30.18 in 0.2 mi Calm Calm - N/A Fog Fog
1:58 AM 64.0 °F - 64.0 °F 100% 30.18 in 0.2 mi Calm Calm - N/A Fog Fog
2:07 AM 64.4 °F - 64.4 °F 100% 30.18 in 0.2 mi Calm Calm - N/A Fog Fog
2:31 AM 64.4 °F - 62.6 °F 94% 30.17 in 0.5 mi Calm Calm - N/A Fog Fog
2:38 AM 64.4 °F - 62.6 °F 94% 30.17 in 0.5 mi Calm Calm - N/A Fog Fog
2:47 AM 64.4 °F - 62.6 °F 94% 30.17 in 0.2 mi Calm Calm - N/A Fog Fog
2:56 AM 64.4 °F - 62.6 °F 94% 30.17 in 0.5 mi Calm Calm - N/A Fog Fog
2:58 AM 64.0 °F - 63.0 °F 96% 30.18 in 0.5 mi Calm Calm - N/A Fog Fog
3:03 AM 64.4 °F - 62.6 °F 94% 30.17 in 0.5 mi Calm Calm - N/A Fog Fog
3:07 AM 62.6 °F - 62.6 °F 100% 30.18 in 0.2 mi Calm Calm - N/A Fog Fog
3:15 AM 62.6 °F - 62.6 °F 100% 30.18 in 0.2 mi Calm Calm - N/A Fog Fog
3:21 AM 62.6 °F - 62.6 °F 100% 30.18 in 0.5 mi NW 3.5 mph - N/A Fog Fog
3:26 AM 62.6 °F - 62.6 °F 100% 30.18 in 1.0 mi NW 3.5 mph - N/A   Mostly Cloudy
3:28 AM 62.6 °F - 62.6 °F 100% 30.18 in 2.0 mi NW 3.5 mph - N/A   Overcast
3:33 AM 62.6 °F - 62.6 °F 100% 30.18 in 5.0 mi WNW 3.5 mph - N/A   Mostly Cloudy
3:58 AM 63.0 °F - 62.1 °F 97% 30.18 in 9.0 mi Calm Calm - N/A   Mostly Cloudy
4:58 AM 62.1 °F - 62.1 °F 100% 30.18 in 10.0 mi Calm Calm - N/A   Mostly Cloudy
5:51 AM 62.6 °F - 60.8 °F 94% 30.18 in 7.0 mi NW 4.6 mph - N/A   Partly Cloudy
5:58 AM 62.1 °F - 62.1 °F 100% 30.19 in 7.0 mi NW 3.5 mph - N/A   Mostly Cloudy
6:27 AM 62.6 °F - 62.6 °F 100% 30.19 in 6.0 mi Calm Calm - N/A   Scattered Clouds
6:33 AM 62.6 °F - 60.8 °F 94% 30.19 in 1.8 mi Calm Calm - N/A   Scattered Clouds
6:41 AM 60.8 °F - 60.8 °F 100% 30.19 in 1.0 mi Calm Calm - N/A   Mostly Cloudy
6:47 AM 62.6 °F - 60.8 °F 94% 30.19 in 1.5 mi Calm Calm - N/A   Mostly Cloudy
6:54 AM 62.6 °F - 62.6 °F 100% 30.19 in 7.0 mi Calm Calm - N/A   Mostly Cloudy
6:58 AM 62.1 °F - 61.0 °F 96% 30.19 in 1.0 mi Calm Calm - N/A   Overcast
7:02 AM 62.6 °F - 60.8 °F 94% 30.19 in 9.0 mi Calm Calm - N/A   Overcast
7:09 AM 62.6 °F - 60.8 °F 94% 30.19 in 1.0 mi Calm Calm - N/A   Overcast
7:40 AM 62.6 °F - 62.6 °F 100% 30.20 in 0.2 mi Calm Calm - N/A Fog Fog
7:58 AM 63.0 °F - 63.0 °F 100% 30.20 in 0.2 mi Calm Calm - N/A Fog Fog
8:23 AM 64.4 °F - 62.6 °F 94% 30.20 in 0.2 mi Calm Calm - N/A Fog Fog
8:58 AM 66.0 °F - 64.9 °F 96% 30.21 in 0.2 mi Calm Calm - N/A Fog Fog
9:00 AM 66.2 °F - 64.4 °F 94% 30.21 in 0.5 mi Calm Calm - N/A Fog Fog
9:05 AM 66.2 °F - 66.2 °F 100% 30.21 in 1.0 mi Calm Calm - N/A   Overcast
9:08 AM 66.2 °F - 66.2 °F 100% 30.21 in 2.0 mi South 3.5 mph - N/A   Mostly Cloudy
9:19 AM 68.0 °F - 66.2 °F 94% 30.21 in 2.5 mi Calm Calm - N/A   Scattered Clouds
9:44 AM 71.6 °F - 69.8 °F 94% 30.21 in 3.0 mi SSW 3.5 mph - N/A   Clear
9:58 AM 73.0 °F - 69.1 °F 87% 30.21 in 3.0 mi South 8.1 mph - N/A   Clear
10:58 AM 75.9 °F - 70.0 °F 82% 30.19 in 5.0 mi SSW 8.1 mph - N/A   Haze
11:58 AM 81.0 °F 83.0 °F 66.0 °F 60% 30.17 in 5.0 mi SSW 10.4 mph - N/A   Haze
12:58 PM 79.0 °F - 69.1 °F 72% 30.14 in 5.0 mi ESE 13.8 mph - N/A   Haze
1:58 PM 75.9 °F - 69.1 °F 79% 30.12 in 5.0 mi SSE 11.5 mph - N/A   Haze
2:58 PM 77.0 °F - 69.1 °F 76% 30.11 in 5.0 mi SE 10.4 mph - N/A   Haze
3:58 PM 75.0 °F - 69.1 °F 82% 30.10 in 5.0 mi SSE 12.7 mph - N/A   Haze
4:58 PM 73.0 °F - 68.0 °F 84% 30.11 in 7.0 mi SSE 11.5 mph - N/A   Clear
5:58 PM 72.0 °F - 68.0 °F 87% 30.12 in 7.0 mi SSE 8.1 mph - N/A   Clear
6:58 PM 70.0 °F - 68.0 °F 93% 30.13 in 10.0 mi SSE 5.8 mph - N/A   Clear
7:58 PM 72.0 °F - 68.0 °F 87% 30.14 in 10.0 mi South 6.9 mph - N/A   Mostly Cloudy
8:58 PM 73.0 °F - 68.0 °F 84% 30.15 in 10.0 mi SW 5.8 mph - N/A   Overcast
9:58 PM 72.0 °F - 68.0 °F 87% 30.15 in 10.0 mi SSW 4.6 mph - N/A   Mostly Cloudy
10:58 PM 70.0 °F - 68.0 °F 93% 30.14 in 10.0 mi SW 3.5 mph - N/A   Clear
11:58 PM 69.1 °F - 66.9 °F 93% 30.13 in 10.0 mi South 4.6 mph - N/A   Clear